Time,TemperatureF,DewpointF,PressureIn,WindDirection,WindDirectionDegrees,WindSpeedMPH,WindSpeedGustMPH,Humidity,HourlyPrecipIn,Conditions,Clouds,dailyrainin,SoftwareType,DateUTC
2013-07-08 00:00:00,58.8,50.5,29.87,North,351,0.0,4.0,74,0.00,,,-99.99,Weather View 32 v60,2013-07-08 07:00:00,
2013-07-08 00:10:00,58.5,50.5,29.87,West,274,0.0,0.0,75,0.00,,,-99.99,Weather View 32 v60,2013-07-08 07:10:00,
2013-07-08 00:20:00,58.3,51.1,29.87,North,351,0.0,0.0,77,0.00,,,-99.99,Weather View 32 v60,2013-07-08 07:20:00,
2013-07-08 00:28:00,58.3,51.1,29.87,North,351,0.0,0.0,77,0.00,,,-99.99,Weather View 32 v60,2013-07-08 07:28:00,
2013-07-08 00:40:00,57.7,51.3,29.87,NNW,329,0.0,0.0,79,0.00,,,-99.99,Weather View 32 v60,2013-07-08 07:40:00,
2013-07-08 00:50:00,57.6,51.1,29.87,NNW,329,0.0,0.0,79,0.00,,,-99.99,Weather View 32 v60,2013-07-08 07:50:00,
2013-07-08 01:00:00,57.4,50.6,29.87,NNW,329,0.0,0.0,78,0.00,,,-99.99,Weather View 32 v60,2013-07-08 08:00:00,
2013-07-08 01:10:00,57.2,50.7,29.87,WNW,287,0.0,0.0,79,0.00,,,-99.99,Weather View 32 v60,2013-07-08 08:10:00,
2013-07-08 01:20:00,57.0,50.6,29.87,WNW,291,0.0,0.0,79,0.00,,,-99.99,Weather View 32 v60,2013-07-08 08:20:00,
2013-07-08 01:29:00,57.0,50.6,29.87,WNW,291,0.0,0.0,79,0.00,,,-99.99,Weather View 32 v60,2013-07-08 08:29:00,
2013-07-08 01:40:00,56.8,51.1,29.87,North,351,0.0,0.0,81,0.00,,,-99.99,Weather View 32 v60,2013-07-08 08:40:00,
2013-07-08 01:50:00,56.7,51.2,29.87,NNW,336,0.0,0.0,82,0.00,,,-99.99,Weather View 32 v60,2013-07-08 08:50:00,
2013-07-08 02:00:00,56.5,51.4,29.87,North,5,0.0,0.0,83,0.00,,,-99.99,Weather View 32 v60,2013-07-08 09:00:00,
2013-07-08 02:10:00,56.5,52.0,29.87,NNE,24,0.0,0.0,85,0.00,,,-99.99,Weather View 32 v60,2013-07-08 09:10:00,
2013-07-08 02:20:00,56.1,51.7,29.87,NNE,16,0.0,0.0,85,0.00,,,-99.99,Weather View 32 v60,2013-07-08 09:20:00,
2013-07-08 02:29:00,56.1,51.7,29.87,NNE,16,0.0,0.0,85,0.00,,,-99.99,Weather View 32 v60,2013-07-08 09:29:00,
2013-07-08 02:40:00,55.9,51.5,29.87,North,351,0.0,0.0,85,0.00,,,-99.99,Weather View 32 v60,2013-07-08 09:40:00,
2013-07-08 02:50:00,55.6,51.1,29.87,NNW,332,0.0,0.0,85,0.00,,,-99.99,Weather View 32 v60,2013-07-08 09:50:00,
2013-07-08 03:00:00,55.4,51.3,29.87,NNW,332,0.0,0.0,86,0.00,,,-99.99,Weather View 32 v60,2013-07-08 10:00:00,
2013-07-08 03:10:00,55.2,51.1,29.87,NNW,332,0.0,0.0,86,0.00,,,-99.99,Weather View 32 v60,2013-07-08 10:10:00,
2013-07-08 03:20:00,55.2,51.4,29.87,NNW,332,0.0,0.0,87,0.00,,,-99.99,Weather View 32 v60,2013-07-08 10:20:00,
2013-07-08 03:30:00,54.9,51.1,29.87,NNW,332,0.0,0.0,87,0.00,,,-99.99,Weather View 32 v60,2013-07-08 10:30:00,
2013-07-08 03:40:00,54.5,50.7,29.90,NNW,332,0.0,0.0,87,0.00,,,-99.99,Weather View 32 v60,2013-07-08 10:40:00,
2013-07-08 03:50:00,54.3,50.8,29.90,NNW,332,0.0,0.0,88,0.00,,,-99.99,Weather View 32 v60,2013-07-08 10:50:00,
2013-07-08 04:00:00,54.3,50.8,29.90,NNW,332,0.0,0.0,88,0.00,,,-99.99,Weather View 32 v60,2013-07-08 11:00:00,
2013-07-08 04:10:00,54.1,50.7,29.90,NNW,332,0.0,0.0,88,0.00,,,-99.99,Weather View 32 v60,2013-07-08 11:10:00,
2013-07-08 04:20:00,54.0,50.8,29.90,NNW,332,0.0,0.0,89,0.00,,,-99.99,Weather View 32 v60,2013-07-08 11:20:00,
2013-07-08 04:30:00,53.8,50.6,29.90,NNW,332,0.0,0.0,89,0.00,,,-99.99,Weather View 32 v60,2013-07-08 11:30:00,
2013-07-08 04:40:00,53.6,50.4,29.90,NNW,332,0.0,0.0,89,0.00,,,-99.99,Weather View 32 v60,2013-07-08 11:40:00,
2013-07-08 04:50:00,53.4,50.6,29.90,NNW,332,0.0,0.0,90,0.00,,,-99.99,Weather View 32 v60,2013-07-08 11:50:00,
2013-07-08 04:59:00,53.1,50.2,29.90,NNW,332,0.0,0.0,90,0.00,,,-99.99,Weather View 32 v60,2013-07-08 11:59:00,
2013-07-08 05:10:00,53.1,50.2,29.90,NNW,332,0.0,0.0,90,0.00,,,-99.99,Weather View 32 v60,2013-07-08 12:10:00,
2013-07-08 05:19:00,52.9,50.0,29.90,NNW,332,0.0,0.0,90,0.00,,,-99.99,Weather View 32 v60,2013-07-08 12:19:00,
2013-07-08 05:29:00,52.7,50.1,29.90,NNW,332,0.0,0.0,91,0.00,,,-99.99,Weather View 32 v60,2013-07-08 12:29:00,
2013-07-08 05:40:00,52.7,50.1,29.90,NNW,332,0.0,0.0,91,0.00,,,-99.99,Weather View 32 v60,2013-07-08 12:40:00,
2013-07-08 05:50:00,52.7,50.4,29.90,NNW,332,0.0,0.0,92,0.00,,,-99.99,Weather View 32 v60,2013-07-08 12:50:00,
2013-07-08 06:00:00,52.7,50.4,29.90,NNW,332,0.0,0.0,92,0.00,,,-99.99,Weather View 32 v60,2013-07-08 13:00:00,
2013-07-08 06:10:00,52.7,50.4,29.90,NNW,332,0.0,0.0,92,0.00,,,-99.99,Weather View 32 v60,2013-07-08 13:10:00,
2013-07-08 06:20:00,53.1,50.8,29.90,NNW,332,0.0,0.0,92,0.00,,,-99.99,Weather View 32 v60,2013-07-08 13:20:00,
2013-07-08 06:30:00,53.4,51.4,29.90,NNW,332,0.0,0.0,93,0.00,,,-99.99,Weather View 32 v60,2013-07-08 13:30:00,
2013-07-08 06:40:00,53.8,51.8,29.90,NNW,332,0.0,0.0,93,0.00,,,-99.99,Weather View 32 v60,2013-07-08 13:40:00,
2013-07-08 06:50:00,54.5,52.5,29.90,NNW,332,0.0,0.0,93,0.00,,,-99.99,Weather View 32 v60,2013-07-08 13:50:00,
2013-07-08 07:00:00,55.2,53.2,29.93,NNW,332,0.0,0.0,93,0.00,,,-99.99,Weather View 32 v60,2013-07-08 14:00:00,
2013-07-08 07:10:00,56.3,54.3,29.93,NNW,332,0.0,0.0,93,0.00,,,-99.99,Weather View 32 v60,2013-07-08 14:10:00,
2013-07-08 07:20:00,57.4,55.1,29.93,NNW,332,0.0,0.0,92,0.00,,,-99.99,Weather View 32 v60,2013-07-08 14:20:00,
2013-07-08 07:30:00,58.1,55.2,29.93,ENE,62,0.0,0.0,90,0.00,,,-99.99,Weather View 32 v60,2013-07-08 14:30:00,
2013-07-08 07:40:00,58.8,54.6,29.93,ESE,122,0.0,0.0,86,0.00,,,-99.99,Weather View 32 v60,2013-07-08 14:40:00,
2013-07-08 07:50:00,59.2,54.0,29.93,WSW,249,0.0,0.0,83,0.00,,,-99.99,Weather View 32 v60,2013-07-08 14:50:00,
2013-07-08 08:00:00,60.1,54.6,29.93,SE,130,0.0,0.0,82,0.00,,,-99.99,Weather View 32 v60,2013-07-08 15:00:00,
2013-07-08 08:10:00,60.4,53.9,29.93,NNW,329,0.0,0.0,79,0.00,,,-99.99,Weather View 32 v60,2013-07-08 15:10:00,
2013-07-08 08:20:00,61.0,53.3,29.93,NE,36,0.0,0.0,76,0.00,,,-99.99,Weather View 32 v60,2013-07-08 15:20:00,
2013-07-08 08:30:00,61.3,53.0,29.93,NNE,23,0.0,0.0,74,0.00,,,-99.99,Weather View 32 v60,2013-07-08 15:30:00,
2013-07-08 08:40:00,62.1,52.9,29.93,NE,46,0.0,0.0,72,0.00,,,-99.99,Weather View 32 v60,2013-07-08 15:40:00,
2013-07-08 08:50:00,63.0,53.4,29.93,NNW,328,0.0,0.0,71,0.00,,,-99.99,Weather View 32 v60,2013-07-08 15:50:00,
2013-07-08 09:00:00,63.7,53.3,29.93,NNE,27,0.0,0.0,69,0.00,,,-99.99,Weather View 32 v60,2013-07-08 16:00:00,
2013-07-08 09:10:00,64.2,53.0,29.93,NNW,344,0.0,0.0,67,0.00,,,-99.99,Weather View 32 v60,2013-07-08 16:10:00,
2013-07-08 09:20:00,65.1,53.0,29.93,NW,326,0.0,0.0,65,0.00,,,-99.99,Weather View 32 v60,2013-07-08 16:20:00,
2013-07-08 09:30:00,66.2,53.2,29.93,NE,37,0.0,0.0,63,0.00,,,-99.99,Weather View 32 v60,2013-07-08 16:30:00,
2013-07-08 09:40:00,67.1,53.2,29.93,ESE,123,0.0,0.0,61,0.00,,,-99.99,Weather View 32 v60,2013-07-08 16:40:00,
2013-07-08 09:50:00,68.7,52.8,29.93,East,79,0.0,0.0,57,0.00,,,-99.99,Weather View 32 v60,2013-07-08 16:50:00,
2013-07-08 10:00:00,69.4,51.0,29.93,East,89,0.0,0.0,52,0.00,,,-99.99,Weather View 32 v60,2013-07-08 17:00:00,
2013-07-08 10:20:00,70.9,52.3,29.93,WSW,245,0.0,0.0,52,0.00,,,-99.99,Weather View 32 v60,2013-07-08 17:20:00,
2013-07-08 10:30:00,72.3,50.3,29.93,East,87,0.0,0.0,46,0.00,,,-99.99,Weather View 32 v60,2013-07-08 17:30:00,
2013-07-08 10:40:00,73.6,51.5,29.93,ESE,107,0.0,0.0,46,0.00,,,-99.99,Weather View 32 v60,2013-07-08 17:40:00,
2013-07-08 10:50:00,75.2,51.1,29.93,West,281,0.0,0.0,43,0.00,,,-99.99,Weather View 32 v60,2013-07-08 17:50:00,
2013-07-08 11:00:00,75.7,48.9,29.93,NE,39,0.0,0.0,39,0.00,,,-99.99,Weather View 32 v60,2013-07-08 18:00:00,
2013-07-08 11:10:00,76.6,49.1,29.93,NW,316,0.0,0.0,38,0.00,,,-99.99,Weather View 32 v60,2013-07-08 18:10:00,
2013-07-08 11:20:00,77.9,49.5,29.93,NNE,29,0.0,4.0,37,0.00,,,-99.99,Weather View 32 v60,2013-07-08 18:20:00,
2013-07-08 11:34:00,78.4,48.4,29.93,WNW,301,0.0,6.0,35,0.00,,,-99.99,Weather View 32 v60,2013-07-08 18:34:00,
2013-07-08 11:50:00,81.5,48.7,29.93,NNW,338,0.0,6.0,32,0.00,,,-99.99,Weather View 32 v60,2013-07-08 18:50:00,
2013-07-08 12:00:00,81.5,48.7,29.93,ENE,57,0.0,6.0,32,0.00,,,-99.99,Weather View 32 v60,2013-07-08 19:00:00,
2013-07-08 12:10:00,82.6,48.8,29.93,WSW,248,0.0,6.0,31,0.00,,,-99.99,Weather View 32 v60,2013-07-08 19:10:00,
2013-07-08 12:40:00,84.0,49.1,29.93,West,259,0.0,6.0,30,0.00,,,-99.99,Weather View 32 v60,2013-07-08 19:40:00,
2013-07-08 12:59:00,85.6,48.7,29.93,NW,315,0.0,7.0,28,0.00,,,-99.99,Weather View 32 v60,2013-07-08 19:59:00,
2013-07-08 13:19:00,87.1,48.9,29.93,North,351,0.0,8.0,27,0.00,,,-99.99,Weather View 32 v60,2013-07-08 20:19:00,
2013-07-08 13:30:00,87.6,49.4,29.93,SSE,165,0.0,8.0,27,0.00,,,-99.99,Weather View 32 v60,2013-07-08 20:30:00,
2013-07-08 13:39:00,88.2,47.8,29.93,NW,320,0.0,8.0,25,0.00,,,-99.99,Weather View 32 v60,2013-07-08 20:39:00,
2013-07-08 14:30:00,90.5,45.1,29.90,North,7,0.0,9.0,21,0.00,,,-99.99,Weather View 32 v60,2013-07-08 21:30:00,
2013-07-08 14:36:00,90.5,45.1,29.90,North,7,0.0,9.0,21,0.00,,,-99.99,Weather View 32 v60,2013-07-08 21:36:00,
2013-07-08 14:49:00,92.7,45.6,29.90,SSW,197,0.0,7.0,20,0.00,,,-99.99,Weather View 32 v60,2013-07-08 21:49:00,
2013-07-08 15:00:00,93.2,46.0,29.90,East,81,0.0,7.0,20,0.00,,,-99.99,Weather View 32 v60,2013-07-08 22:00:00,
2013-07-08 15:09:00,92.8,47.0,29.90,NNE,18,0.0,7.0,21,0.00,,,-99.99,Weather View 32 v60,2013-07-08 22:09:00,
2013-07-08 15:20:00,93.4,46.2,29.90,NNE,23,0.0,7.0,20,0.00,,,-99.99,Weather View 32 v60,2013-07-08 22:20:00,
2013-07-08 15:29:00,93.9,45.3,29.90,ESE,102,0.0,7.0,19,0.00,,,-99.99,Weather View 32 v60,2013-07-08 22:29:00,
2013-07-08 15:39:00,95.5,43.6,29.90,WSW,247,0.0,7.0,17,0.00,,,-99.99,Weather View 32 v60,2013-07-08 22:39:00,
2013-07-08 15:49:00,95.7,43.8,29.90,SW,222,0.0,7.0,17,0.00,,,-99.99,Weather View 32 v60,2013-07-08 22:49:00,
2013-07-08 16:00:00,96.4,42.8,29.90,SW,219,0.0,7.0,16,0.00,,,-99.99,Weather View 32 v60,2013-07-08 23:00:00,
2013-07-08 16:37:00,95.7,45.3,29.90,WSW,240,0.0,9.0,18,0.00,,,-99.99,Weather View 32 v60,2013-07-08 23:37:00,
2013-07-08 17:00:00,92.3,46.6,29.90,WNW,300,0.0,9.0,21,0.00,,,-99.99,Weather View 32 v60,2013-07-09 00:00:00,
2013-07-08 17:10:00,91.8,46.1,29.90,WSW,252,0.0,9.0,21,0.00,,,-99.99,Weather View 32 v60,2013-07-09 00:10:00,
2013-07-08 17:20:00,0.0,0.0,29.90,WSW,243,0.0,7.0,0,0.00,,,-99.99,Weather View 32 v60,2013-07-09 00:20:00,
2013-07-08 17:30:00,90.3,46.2,29.90,NW,319,0.0,7.0,22,0.00,,,-99.99,Weather View 32 v60,2013-07-09 00:30:00,
2013-07-08 17:37:00,90.3,46.2,29.90,NW,319,0.0,7.0,22,0.00,,,-99.99,Weather View 32 v60,2013-07-09 00:37:00,
2013-07-08 17:50:00,0.0,0.0,29.90,NNE,15,0.0,8.0,0,0.00,,,-99.99,Weather View 32 v60,2013-07-09 00:50:00,
2013-07-08 18:00:00,0.0,0.0,29.90,NNW,344,0.0,8.0,0,0.00,,,-99.99,Weather View 32 v60,2013-07-09 01:00:00,
2013-07-08 18:20:00,87.4,47.2,29.90,West,280,0.0,8.0,25,0.00,,,-99.99,Weather View 32 v60,2013-07-09 01:20:00,
2013-07-08 18:38:00,86.9,47.8,29.90,West,266,0.0,8.0,26,0.00,,,-99.99,Weather View 32 v60,2013-07-09 01:38:00,
2013-07-08 18:50:00,85.6,46.7,29.90,NW,324,0.0,6.0,26,0.00,,,-99.99,Weather View 32 v60,2013-07-09 01:50:00,
2013-07-08 19:10:00,83.7,47.0,29.90,West,280,0.0,6.0,28,0.00,,,-99.99,Weather View 32 v60,2013-07-09 02:10:00,
2013-07-08 19:30:00,82.0,47.4,29.90,NNW,337,0.0,5.0,30,0.00,,,-99.99,Weather View 32 v60,2013-07-09 02:30:00,
2013-07-08 19:38:00,82.0,47.4,29.90,NNW,337,0.0,5.0,30,0.00,,,-99.99,Weather View 32 v60,2013-07-09 02:38:00,
2013-07-08 19:50:00,81.1,47.5,29.90,SW,224,0.0,5.0,31,0.00,,,-99.99,Weather View 32 v60,2013-07-09 02:50:00,
2013-07-08 20:00:00,80.6,47.1,29.90,West,273,0.0,5.0,31,0.00,,,-99.99,Weather View 32 v60,2013-07-09 03:00:00,
2013-07-08 20:10:00,79.7,47.1,29.90,NNW,331,0.0,5.0,32,0.00,,,-99.99,Weather View 32 v60,2013-07-09 03:10:00,
2013-07-08 20:30:00,77.4,45.1,29.93,WNW,295,0.0,0.0,32,0.00,,,-99.99,Weather View 32 v60,2013-07-09 03:30:00,
2013-07-08 20:39:00,77.4,45.1,29.93,WNW,295,0.0,0.0,32,0.00,,,-99.99,Weather View 32 v60,2013-07-09 03:39:00,
2013-07-08 21:00:00,73.9,42.1,29.93,WSW,252,0.0,6.0,32,0.00,,,-99.99,Weather View 32 v60,2013-07-09 04:00:00,
2013-07-08 21:09:00,73.0,42.2,29.93,NW,304,3.0,7.0,33,0.00,,,-99.99,Weather View 32 v60,2013-07-09 04:09:00,
2013-07-08 21:20:00,72.5,41.7,29.93,WSW,254,0.0,7.0,33,0.00,,,-99.99,Weather View 32 v60,2013-07-09 04:20:00,
2013-07-08 21:29:00,72.1,41.4,29.93,WNW,291,0.0,7.0,33,0.00,,,-99.99,Weather View 32 v60,2013-07-09 04:29:00,
2013-07-08 21:40:00,71.8,41.8,29.93,WSW,257,0.0,7.0,34,0.00,,,-99.99,Weather View 32 v60,2013-07-09 04:40:00,
2013-07-08 21:49:00,71.4,43.0,29.93,West,278,0.0,7.0,36,0.00,,,-99.99,Weather View 32 v60,2013-07-09 04:49:00,
2013-07-08 22:00:00,71.1,44.8,29.96,West,269,0.0,7.0,39,0.00,,,-99.99,Weather View 32 v60,2013-07-09 05:00:00,
2013-07-08 22:09:00,70.5,45.6,29.96,NW,306,0.0,7.0,41,0.00,,,-99.99,Weather View 32 v60,2013-07-09 05:09:00,
2013-07-08 22:20:00,70.0,45.8,29.96,West,262,0.0,7.0,42,0.00,,,-99.99,Weather View 32 v60,2013-07-09 05:20:00,
2013-07-08 22:29:00,69.4,45.9,29.96,WNW,299,0.0,7.0,43,0.00,,,-99.99,Weather View 32 v60,2013-07-09 05:29:00,
2013-07-08 22:40:00,68.9,47.2,29.96,SW,236,0.0,7.0,46,0.00,,,-99.99,Weather View 32 v60,2013-07-09 05:40:00,
2013-07-08 22:49:00,68.7,48.2,29.96,South,190,0.0,7.0,48,0.00,,,-99.99,Weather View 32 v60,2013-07-09 05:49:00,
2013-07-08 23:00:00,68.4,48.9,29.96,South,190,0.0,7.0,50,0.00,,,-99.99,Weather View 32 v60,2013-07-09 06:00:00,
2013-07-08 23:10:00,67.8,49.5,29.96,ESE,109,0.0,0.0,52,0.00,,,-99.99,Weather View 32 v60,2013-07-09 06:10:00,
2013-07-08 23:20:00,67.5,49.7,29.96,SSE,161,0.0,0.0,53,0.00,,,-99.99,Weather View 32 v60,2013-07-09 06:20:00,
2013-07-08 23:30:00,66.9,50.7,29.96,SW,217,0.0,0.0,56,0.00,,,-99.99,Weather View 32 v60,2013-07-09 06:30:00,
2013-07-08 23:39:00,66.6,50.3,29.96,SSW,211,0.0,0.0,56,0.00,,,-99.99,Weather View 32 v60,2013-07-09 06:39:00,
2013-07-08 23:50:00,66.0,50.8,29.96,SE,136,0.0,0.0,58,0.00,,,-99.99,Weather View 32 v60,2013-07-09 06:50:00,